[[{"header":{"parameterUnit":"m.s-1","parameterCategory":2,"la1":30.2991,"la2":30.254,"lo1":-89.0895,"lo2":-89.0444,"dy":0.0017,"dx":0.0017,"nx":28,"ny":28,"refTime":"2025-08-14T09:00:00:Z","depth":"0","parameterNumber":2,"parameterNumberName":"U-component_of_CURRENTS"},"data":[0,0,0,0,0,0,0,0,0,0,0,0,0,0,0,0,0,0,0,0,0,0,0,0,0,0,0,0,0,0,0,0,0,0,0,0,0,0,0,0,0,0,0,0,0,0,0,0,0,0,0,0,0,0,0,0,0,0,0.229,0.229,0,0.2328,0.2329,0.2329,0.2367,0.2368,0.2368,0.2369,0.2425,0.2427,0.2428,0,0,0,0,0,0,0,0,0,0,0,0,0,0.2225,0.2226,0.229,0.229,0.2291,0.2328,0.2329,0.2329,0.2367,0.2368,0.2368,0.2369,0.2425,0.2426,0.2428,0,0,0,0,0,0,0,0,0,0,0,0,0,0.2258,0.2227,0.229,0.2313,0.2316,0.2328,0.2329,0.2329,0.2367,0.2368,0.2368,0.2369,0.2425,0.2426,0.2428,0.2427,0,0,0.2433,0.2434,0,0,0,0,0,0,0,0,0.2256,0.2261,0.2309,0.2312,0.2314,0.2342,0.2327,0.2363,0.2367,0.2349,0.2369,0.2369,0.2398,0.2402,0.241,0.243,0.2432,0.2433,0.2434,0.2435,0.2436,0,0,0,0,0,0,0,0.2254,0.2259,0.2306,0.231,0.2313,0.2313,0.2319,0.2333,0.2371,0.2351,0.2353,0.2355,0.24,0.2408,0.2411,0.2433,0.2433,0.2435,0.2436,0.2437,0.2475,0.2475,0,0,0,0,0,0,0.2248,0.2257,0.2305,0.2307,0.2285,0.2314,0.232,0.2334,0.2371,0.2376,0.2355,0.2357,0.2405,0.2409,0.2413,0.2433,0.2435,0.2437,0.2438,0.2475,0.2475,0.2475,0,0,0,0,0,0,0.2246,0.2252,0.2304,0.2281,0.2288,0.2314,0.2329,0.2334,0.2344,0.2373,0.238,0.2359,0.2405,0.2411,0.2426,0.2435,0.2438,0.2439,0.2475,0.2475,0.2475,0.2461,0,0,0,0,0,0,0.2245,0.2252,0.2261,0.2281,0.2289,0.2311,0.2329,0.2335,0.2343,0.2346,0.2379,0.2385,0.2406,0.2423,0.2427,0.2437,0.2441,0.2475,0.2475,0.2475,0.2461,0.246,0.2459,0,0,0,0,0,0.2242,0.2249,0.2261,0.2267,0.2301,0.231,0.2314,0.2335,0.2343,0.2346,0.2366,0.2384,0.2426,0.2424,0.2429,0.244,0.2475,0.2475,0.2475,0.2462,0.246,0.2459,0,0,0,0,0,0,0.2217,0.2254,0.2268,0.2284,0.2297,0.2316,0.2323,0.2331,0.2349,0.2352,0.238,0.2387,0.2403,0.2419,0.2416,0.2451,0.2455,0.2456,0.2443,0.2442,0.2441,0.2448,0.2442,0,0,0,0,0,0.2217,0.2234,0.2262,0.2269,0.2282,0.2301,0.2308,0.2317,0.2333,0.2342,0.2363,0.2386,0.2406,0.2422,0.2438,0.2455,0.2482,0.2466,0.2465,0.2464,0.2473,0.2507,0.251,0.2475,0.2475,0.2475,0,0,0.2202,0.2227,0.2233,0.2265,0.2281,0.2297,0.2307,0.2313,0.2325,0.2344,0.2366,0.2379,0.2407,0.2428,0.2438,0.2445,0.249,0.2464,0.2463,0.2473,0.2507,0.2511,0.2514,0.2475,0.2475,0.2475,0,0,0.2182,0.2212,0.2224,0.2242,0.2266,0.2283,0.2283,0.2304,0.2318,0.2331,0.2351,0.2368,0.2396,0.2424,0.2441,0.2444,0.2477,0.2447,0.2458,0.249,0.2493,0.2496,0.2542,0.255,0.2454,0.2454,0.2454,0,0.2166,0.2191,0.2222,0.2242,0.2257,0.2278,0.2289,0.2305,0.2323,0.2342,0.2336,0.2383,0.2399,0.244,0.2441,0.2444,0.247,0.246,0.2489,0.2493,0.2497,0.2543,0.2552,0.2454,0.2454,0.2454,0.2454,0,0.2164,0.2182,0.2189,0.2232,0.2249,0.2257,0.229,0.2306,0.232,0.2341,0.2371,0.2387,0.2424,0.2425,0.2434,0.2471,0.2485,0.2478,0.2493,0.25,0.2548,0.2557,0.2453,0.2453,0.2453,0.2453,0,0,0.213,0.2181,0.2183,0.2204,0.2246,0.2259,0.2288,0.2327,0.2358,0.2368,0.2406,0.2426,0.2439,0.2458,0.247,0.2492,0.2535,0.2496,0.2498,0.2544,0.262,0.2712,0.2731,0.2532,0.2533,0.2534,0.2647,0,0.212,0.2154,0.2181,0.2203,0.2227,0.2264,0.2294,0.2331,0.2364,0.2407,0.2431,0.2468,0.2452,0.2471,0.2489,0.2523,0.2558,0.2507,0.2606,0.2609,0.2691,0.2744,0.2834,0.2949,0.2656,0.2657,0.2658,0,0.2112,0.2141,0.2165,0.2212,0.2227,0.2241,0.2308,0.2336,0.2406,0.2433,0.2473,0.2502,0.2545,0.2522,0.2593,0.2561,0.2594,0.2614,0.2619,0.2718,0.2718,0.2894,0.2977,0.288,0.2673,0.2672,0.2671,0,0.2085,0.2126,0.2148,0.2165,0.2223,0.224,0.2271,0.2341,0.2383,0.2456,0.2497,0.2547,0.2585,0.2617,0.2675,0.2635,0.2759,0.2712,0.2829,0.2836,0.2943,0.2958,0.295,0.2771,0.2771,0.277,0.277,0,0.2069,0.2084,0.2135,0.2149,0.2182,0.2225,0.2272,0.2316,0.239,0.2454,0.2506,0.2569,0.261,0.269,0.271,0.2827,0.2798,0.2858,0.2881,0.2942,0.2954,0.2898,0.2787,0.2775,0.2774,0.2773,0.2772,0,0.2027,0.2064,0.2092,0.2149,0.2167,0.2189,0.2263,0.231,0.2378,0.2463,0.2492,0.2603,0.272,0.2788,0.2872,0.2902,0.292,0.3028,0.3111,0.3142,0.3142,0.3027,0.294,0.2805,0.3167,0.317,0.3173,0,0.2011,0.2023,0.2081,0.2107,0.2128,0.2173,0.2217,0.2291,0.235,0.249,0.2535,0.2683,0.28,0.2987,0.3105,0.3221,0.3036,0.3346,0.3282,0.3185,0.3072,0.2873,0.2747,0.3416,0.342,0.3424,0.3427,0,0.1979,0.1998,0.2022,0.2079,0.212,0.2173,0.2236,0.2281,0.2389,0.2474,0.2611,0.2716,0.2962,0.3151,0.3339,0.3413,0.3207,0.3423,0.33,0.3262,0.3067,0.2936,0.3288,0.3459,0.3455,0.3453,0.3451,0.345,0.1949,0.1958,0.1999,0.2055,0.2107,0.2172,0.2207,0.2301,0.2397,0.2543,0.2639,0.2834,0.3143,0.3441,0.35,0.3656,0.3406,0.3605,0.3477,0.3285,0.3141,0.3577,0.3779,0.3778,0.3777,0.3776,0.3775,0,0.1916,0.1941,0.1984,0.2048,0.2106,0.2143,0.2227,0.2269,0.2382,0.2563,0.2693,0.3065,0.3328,0.3556,0.3835,0.3753,0.354,0.3605,0.3332,0.3196,0.3625,0.3626,0.3833,0.3833,0.3833,0.3833,0.3833,0.3833,0.1899,0.1919,0.1954,0.2039,0.2093,0.214,0.2185,0.2255,0.2371,0.2593,0.2819,0.3002,0.3392,0.3707,0.3818,0.3726,0.3313,0.3251,0.2978,0.3309,0.3297,0.3285,0.3262,0.3389,0.3389,0.2552,0.2545,0.254]},{"header":{"parameterUnit":"m.s-1","parameterCategory":2,"la1":30.2991,"la2":30.254,"lo1":-89.0895,"lo2":-89.0444,"dy":0.0017,"dx":0.0017,"nx":28,"ny":28,"refTime":"2025-08-14T09:00:00:Z","depth":"0","parameterNumber":3,"parameterNumberName":"V-component_of_CURRENTS"},"data":[0,0,0,0,0,0,0,0,0,0,0,0,0,0,0,0,0,0,0,0,0,0,0,0,0,0,0,0,0,0,0,0,0,0,0,0,0,0,0,0,0,0,0,0,0,0,0,0,0,0,0,0,0,0,0,0,0,0,-0.123,-0.1231,0,-0.1278,-0.1278,-0.1279,-0.1314,-0.1315,-0.1315,-0.1315,-0.1359,-0.136,-0.1361,0,0,0,0,0,0,0,0,0,0,0,0,0,-0.1182,-0.1182,-0.123,-0.1231,-0.1231,-0.1278,-0.1278,-0.1279,-0.1314,-0.1315,-0.1315,-0.1315,-0.1359,-0.136,-0.1361,0,0,0,0,0,0,0,0,0,0,0,0,0,-0.1214,-0.1183,-0.123,-0.1253,-0.1256,-0.1277,-0.1278,-0.1279,-0.1314,-0.1315,-0.1315,-0.1315,-0.1358,-0.136,-0.1361,-0.1364,0,0,-0.1366,-0.1367,0,0,0,0,0,0,0,0,-0.1212,-0.1216,-0.1249,-0.1252,-0.1255,-0.1289,-0.1277,-0.1307,-0.1314,-0.1293,-0.1315,-0.1315,-0.1334,-0.1338,-0.1348,-0.1367,-0.1368,-0.1366,-0.1367,-0.1368,-0.1368,0,0,0,0,0,0,0,-0.121,-0.1215,-0.125,-0.125,-0.1253,-0.1265,-0.127,-0.1283,-0.1313,-0.1295,-0.1298,-0.1301,-0.1336,-0.1347,-0.1349,-0.1369,-0.1366,-0.1367,-0.1368,-0.1369,-0.1391,-0.1391,0,0,0,0,0,0,-0.1201,-0.1212,-0.1249,-0.1252,-0.1232,-0.1266,-0.1272,-0.1279,-0.1313,-0.1318,-0.1301,-0.1302,-0.1344,-0.1348,-0.1351,-0.1351,-0.1368,-0.1369,-0.137,-0.1392,-0.1391,-0.1391,0,0,0,0,0,0,-0.12,-0.1204,-0.1247,-0.1232,-0.1238,-0.1266,-0.1274,-0.128,-0.1289,-0.1316,-0.1322,-0.1304,-0.1344,-0.1349,-0.1362,-0.1353,-0.137,-0.1371,-0.1392,-0.1392,-0.1391,-0.1354,0,0,0,0,0,0,-0.1198,-0.1203,-0.1199,-0.1231,-0.1238,-0.1252,-0.1274,-0.128,-0.129,-0.1293,-0.1321,-0.1326,-0.1345,-0.136,-0.1364,-0.1355,-0.1372,-0.1392,-0.1392,-0.1391,-0.1356,-0.1353,-0.135,0,0,0,0,0,-0.1196,-0.1187,-0.1199,-0.1203,-0.1234,-0.1251,-0.1256,-0.1278,-0.129,-0.1289,-0.1312,-0.1325,-0.1359,-0.1361,-0.1365,-0.1357,-0.1393,-0.1392,-0.1391,-0.1357,-0.1353,-0.135,0,0,0,0,0,0,-0.1165,-0.1191,-0.1204,-0.1204,-0.1223,-0.1257,-0.1256,-0.1274,-0.1292,-0.1296,-0.1324,-0.133,-0.1335,-0.1352,-0.1354,-0.1362,-0.1377,-0.1377,-0.1349,-0.1346,-0.1343,-0.1325,-0.1373,0,0,0,0,0,-0.1156,-0.1154,-0.1186,-0.1183,-0.1194,-0.1225,-0.1233,-0.1251,-0.1273,-0.1282,-0.13,-0.1321,-0.1336,-0.1346,-0.1359,-0.1366,-0.1381,-0.1363,-0.136,-0.1357,-0.1346,-0.1378,-0.1377,-0.1389,-0.1389,-0.1389,0,0,-0.1143,-0.1155,-0.1155,-0.1176,-0.1195,-0.1199,-0.1231,-0.1242,-0.1243,-0.1283,-0.1284,-0.1308,-0.1335,-0.1342,-0.1346,-0.1356,-0.1359,-0.1357,-0.1354,-0.1344,-0.1378,-0.1377,-0.1376,-0.1388,-0.1388,-0.1389,0,0,-0.111,-0.113,-0.1117,-0.113,-0.1152,-0.1175,-0.1176,-0.1207,-0.1219,-0.1228,-0.1256,-0.1275,-0.1295,-0.1315,-0.1329,-0.1317,-0.134,-0.1321,-0.1295,-0.1327,-0.1326,-0.1326,-0.133,-0.133,-0.1323,-0.1323,-0.1323,0,-0.1094,-0.1083,-0.1115,-0.1107,-0.111,-0.1161,-0.1149,-0.1172,-0.1199,-0.1207,-0.122,-0.1257,-0.128,-0.1297,-0.1294,-0.1309,-0.1324,-0.1307,-0.1323,-0.1323,-0.1323,-0.1328,-0.1328,-0.1321,-0.1321,-0.1321,-0.1322,0,-0.1059,-0.1045,-0.104,-0.1047,-0.1056,-0.1056,-0.1092,-0.1104,-0.1127,-0.115,-0.1168,-0.1207,-0.1231,-0.1242,-0.1264,-0.1277,-0.1285,-0.1313,-0.1331,-0.132,-0.1325,-0.1326,-0.1318,-0.1319,-0.132,-0.132,0,0,-0.1027,-0.1017,-0.101,-0.0997,-0.1023,-0.1027,-0.1034,-0.1054,-0.1058,-0.1094,-0.1096,-0.1135,-0.1167,-0.1183,-0.122,-0.1248,-0.1261,-0.1277,-0.128,-0.1278,-0.1313,-0.1252,-0.1248,-0.13,-0.13,-0.13,-0.1311,0,-0.0986,-0.0952,-0.0957,-0.0923,-0.0914,-0.0951,-0.0949,-0.0977,-0.1009,-0.1027,-0.1083,-0.1098,-0.1144,-0.1155,-0.1193,-0.1241,-0.1265,-0.1254,-0.1326,-0.1327,-0.1273,-0.1248,-0.1142,-0.1137,-0.1312,-0.1313,-0.1313,0,-0.0943,-0.0926,-0.0884,-0.086,-0.0859,-0.0849,-0.0864,-0.0867,-0.0916,-0.0939,-0.0983,-0.1031,-0.1073,-0.1116,-0.1196,-0.1189,-0.1242,-0.1283,-0.1286,-0.1241,-0.1269,-0.118,-0.1133,-0.1192,-0.1315,-0.1315,-0.1315,0,-0.0901,-0.0867,-0.0828,-0.0823,-0.0816,-0.0802,-0.0806,-0.0841,-0.0841,-0.0886,-0.0892,-0.0966,-0.0987,-0.1076,-0.1152,-0.1183,-0.1228,-0.1289,-0.1282,-0.1278,-0.1205,-0.1193,-0.1219,-0.1344,-0.1344,-0.1344,-0.1344,0,-0.0849,-0.0813,-0.0805,-0.0782,-0.0743,-0.0756,-0.0728,-0.0745,-0.0768,-0.0758,-0.0843,-0.0846,-0.0979,-0.1026,-0.1121,-0.1178,-0.1206,-0.1258,-0.1275,-0.1187,-0.1174,-0.1236,-0.1336,-0.1344,-0.1344,-0.1344,-0.1344,0,-0.079,-0.0786,-0.0736,-0.0719,-0.0715,-0.0685,-0.0671,-0.0658,-0.0683,-0.0673,-0.068,-0.0749,-0.0795,-0.0905,-0.1022,-0.1109,-0.1219,-0.1203,-0.1069,-0.1068,-0.1135,-0.1237,-0.1303,-0.1373,-0.1215,-0.1214,-0.1213,0,-0.0747,-0.072,-0.0687,-0.066,-0.0643,-0.0615,-0.0598,-0.0615,-0.0602,-0.0606,-0.0593,-0.0627,-0.064,-0.0763,-0.0885,-0.1004,-0.1137,-0.1015,-0.1064,-0.11,-0.1228,-0.1295,-0.1356,-0.0953,-0.095,-0.0947,-0.0945,0,-0.0664,-0.0658,-0.0627,-0.0585,-0.0552,-0.0519,-0.0496,-0.0474,-0.0484,-0.0457,-0.0423,-0.0427,-0.0516,-0.0553,-0.0696,-0.0811,-0.1054,-0.0964,-0.1046,-0.105,-0.1082,-0.1167,-0.0978,-0.0921,-0.0924,-0.0926,-0.0927,-0.0928,-0.0604,-0.0569,-0.054,-0.05,-0.0465,-0.0424,-0.0378,-0.0342,-0.0288,-0.0196,-0.0248,-0.0131,-0.0212,-0.0381,-0.0585,-0.0779,-0.0908,-0.0845,-0.0972,-0.1039,-0.1086,-0.0822,-0.076,-0.0762,-0.0763,-0.0764,-0.0765,0,-0.054,-0.0513,-0.0461,-0.0413,-0.0365,-0.0368,-0.0309,-0.0235,-0.0132,0.0013,0.0085,0.0258,0.011,-0.01,-0.036,-0.0657,-0.0862,-0.0851,-0.093,-0.1006,-0.0777,-0.0741,-0.0616,-0.0616,-0.0616,-0.0616,-0.0616,-0.0616,-0.0504,-0.0448,-0.0431,-0.034,-0.0303,-0.0216,-0.0169,-0.0037,0.0103,0.0396,0.0623,0.0746,0.0807,0.0131,-0.0379,-0.0624,-0.094,-0.1012,-0.1215,-0.1045,-0.1054,-0.1062,-0.1046,-0.0988,-0.0988,-0.134,-0.1344,-0.1347]}],[{"header":{"parameterUnit":"m.s-1","parameterCategory":2,"la1":30.2991,"la2":30.254,"lo1":-89.0895,"lo2":-89.0444,"dy":0.0017,"dx":0.0017,"nx":28,"ny":28,"refTime":"2025-08-14T09:00:00:Z","depth":"2","parameterNumber":2,"parameterNumberName":"U-component_of_CURRENTS"},"data":[0,0,0,0,0,0,0,0,0,0,0,0,0,0,0,0,0,0,0,0,0,0,0,0,0,0,0,0,0,0,0,0,0,0,0,0,0,0,0,0,0,0,0,0,0,0,0,0,0,0,0,0,0,0,0,0,0,0,0.2493,0.2493,0,0.2438,0.2437,0.2436,0.2349,0.2348,0.2346,0.2345,0.2256,0.2255,0.2254,0,0,0,0,0,0,0,0,0,0,0,0,0,0.2513,0.2513,0.2493,0.2493,0.2492,0.2438,0.2437,0.2436,0.2349,0.2348,0.2346,0.2344,0.2257,0.2255,0.2254,0,0,0,0,0,0,0,0,0,0,0,0,0,0.2484,0.2513,0.2494,0.2444,0.2439,0.2438,0.2437,0.2436,0.235,0.2347,0.2345,0.2343,0.2257,0.2256,0.2254,0.2286,0,0,0.2249,0.2249,0,0,0,0,0,0,0,0,0.2486,0.2483,0.2452,0.2447,0.2442,0.24,0.2411,0.2385,0.235,0.2382,0.2345,0.2342,0.2304,0.2298,0.2291,0.2282,0.2278,0.2249,0.2248,0.2247,0.2247,0,0,0,0,0,0,0,0.2488,0.2485,0.247,0.2451,0.2445,0.2421,0.2414,0.2406,0.2353,0.2379,0.2373,0.237,0.23,0.2292,0.2288,0.2277,0.2249,0.2248,0.2247,0.2246,0.2353,0.2357,0,0,0,0,0,0,0.2502,0.2488,0.2471,0.2468,0.2461,0.2422,0.2415,0.2414,0.2354,0.2344,0.2372,0.2366,0.2296,0.229,0.2284,0.2364,0.2247,0.2246,0.2245,0.235,0.2354,0.2358,0,0,0,0,0,0,0.2502,0.2501,0.2474,0.2478,0.2472,0.2424,0.2424,0.2414,0.2405,0.235,0.2337,0.2373,0.2294,0.2286,0.2303,0.2357,0.2245,0.2244,0.2345,0.2351,0.2356,0.2494,0,0,0,0,0,0,0.2503,0.2502,0.2511,0.2479,0.2473,0.2489,0.2426,0.2414,0.2407,0.2399,0.2347,0.2336,0.2292,0.2307,0.2302,0.2353,0.2243,0.234,0.2348,0.2355,0.2484,0.2503,0.252,0,0,0,0,0,0.2504,0.2529,0.2512,0.251,0.2486,0.2491,0.2487,0.2443,0.241,0.2423,0.2397,0.2337,0.2348,0.2308,0.2302,0.2354,0.2337,0.2346,0.2354,0.2476,0.25,0.2519,0,0,0,0,0,0,0.2553,0.2522,0.2502,0.2518,0.2512,0.2477,0.2484,0.2458,0.2447,0.2434,0.2378,0.2368,0.2413,0.2373,0.233,0.2412,0.2337,0.2345,0.2432,0.2454,0.2471,0.2458,0.2241,0,0,0,0,0,0.2569,0.2567,0.2547,0.2561,0.2561,0.2526,0.2523,0.2497,0.248,0.2471,0.2439,0.2424,0.2448,0.2438,0.2444,0.2476,0.2457,0.2512,0.2529,0.2544,0.2534,0.258,0.26,0.2386,0.2386,0.2386,0,0,0.2587,0.2574,0.257,0.257,0.2555,0.2564,0.2518,0.2522,0.2535,0.2467,0.2481,0.2488,0.2477,0.2525,0.254,0.2489,0.2604,0.2555,0.2567,0.2549,0.2591,0.2611,0.2629,0.2392,0.2391,0.239,0,0,0.2618,0.2618,0.262,0.2621,0.2612,0.2603,0.2611,0.259,0.2589,0.2612,0.2591,0.2634,0.2625,0.2646,0.2653,0.2774,0.271,0.2778,0.2834,0.288,0.2897,0.2911,0.2942,0.2958,0.2769,0.2769,0.277,0,0.2642,0.2637,0.2628,0.2635,0.2637,0.2625,0.2636,0.2651,0.2641,0.2663,0.2631,0.2696,0.2689,0.2773,0.2815,0.2813,0.2813,0.2749,0.2901,0.2914,0.2927,0.2954,0.297,0.2777,0.2776,0.2775,0.2775,0,0.266,0.2664,0.2676,0.2672,0.2689,0.2701,0.2717,0.2745,0.2745,0.2756,0.2839,0.2852,0.2879,0.2913,0.2891,0.2996,0.2961,0.2931,0.2839,0.2956,0.2978,0.2992,0.2788,0.2785,0.2783,0.2781,0,0,0.2681,0.2682,0.2682,0.2683,0.2704,0.2717,0.2774,0.2822,0.2858,0.2894,0.2948,0.3032,0.3036,0.3047,0.3055,0.3095,0.3203,0.3043,0.3042,0.3058,0.3293,0.3133,0.3131,0.319,0.3192,0.3195,0.3282,0,0.269,0.2698,0.2704,0.273,0.2738,0.2765,0.2816,0.2869,0.2912,0.297,0.3038,0.3091,0.3091,0.3106,0.3164,0.3174,0.3241,0.3181,0.3188,0.3188,0.3018,0.3143,0.2876,0.2918,0.3295,0.3297,0.3298,0,0.2691,0.2698,0.2707,0.2744,0.2753,0.2771,0.2847,0.2894,0.2999,0.3031,0.3113,0.315,0.3238,0.3211,0.3314,0.3266,0.3301,0.3317,0.332,0.312,0.3052,0.2858,0.2928,0.332,0.3319,0.3317,0.3316,0,0.2678,0.2703,0.2705,0.2713,0.2758,0.2777,0.2812,0.2906,0.2952,0.3061,0.3095,0.3211,0.3244,0.3313,0.3356,0.3331,0.3452,0.3418,0.3331,0.3319,0.3065,0.3025,0.3531,0.3531,0.3531,0.353,0.353,0,0.2675,0.268,0.269,0.2689,0.2713,0.2757,0.2803,0.2862,0.2948,0.3006,0.311,0.3163,0.3267,0.3346,0.3387,0.3386,0.3485,0.3356,0.3336,0.3107,0.3072,0.3382,0.3364,0.3534,0.3533,0.3532,0.3532,0,0.2648,0.2655,0.2657,0.2687,0.2695,0.2708,0.2761,0.2808,0.2887,0.2959,0.2989,0.3129,0.3209,0.3322,0.3428,0.339,0.3427,0.3425,0.3139,0.3082,0.3259,0.3247,0.3308,0.3303,0.3299,0.3295,0.3292,0,0.263,0.2621,0.2629,0.2627,0.2626,0.2651,0.2677,0.2759,0.2803,0.2925,0.2955,0.3074,0.3111,0.3202,0.3173,0.3206,0.3386,0.3004,0.2905,0.3264,0.324,0.3234,0.3228,0.2651,0.2643,0.2636,0.2631,0,0.2592,0.258,0.2575,0.2564,0.2568,0.2589,0.2622,0.2643,0.2745,0.2778,0.2829,0.2856,0.2911,0.279,0.2833,0.2831,0.2955,0.2867,0.3346,0.2724,0.2644,0.262,0.2636,0.2574,0.2579,0.2584,0.2587,0.2589,0.2546,0.2517,0.2494,0.2462,0.2499,0.2501,0.2481,0.2511,0.2523,0.2496,0.2602,0.2478,0.2504,0.2331,0.2354,0.2387,0.2564,0.2504,0.2525,0.2552,0.2436,0.235,0.2205,0.2208,0.2211,0.2214,0.2216,0,0.2444,0.2408,0.2394,0.2355,0.233,0.2408,0.2426,0.2343,0.2281,0.2223,0.216,0.1839,0.1778,0.1884,0.1793,0.1824,0.1829,0.1836,0.1835,0.189,0.194,0.1795,0.1393,0.1391,0.1389,0.1387,0,0,0.2386,0.2282,0.2236,0.2135,0.2167,0.2142,0.2131,0.2007,0.1907,0.1648,0.1481,0.1484,0.1621,0.1356,0.1437,0.1407,0.1626,0.1362,0.2008,0.2048,0.2095,0.2303,0.2137,0,0,0,0,0]},{"header":{"parameterUnit":"m.s-1","parameterCategory":2,"la1":30.2991,"la2":30.254,"lo1":-89.0895,"lo2":-89.0444,"dy":0.0017,"dx":0.0017,"nx":28,"ny":28,"refTime":"2025-08-14T09:00:00:Z","depth":"2","parameterNumber":3,"parameterNumberName":"V-component_of_CURRENTS"},"data":[0,0,0,0,0,0,0,0,0,0,0,0,0,0,0,0,0,0,0,0,0,0,0,0,0,0,0,0,0,0,0,0,0,0,0,0,0,0,0,0,0,0,0,0,0,0,0,0,0,0,0,0,0,0,0,0,0,0,0.075,0.0749,0,0.0692,0.0691,0.069,0.0617,0.0616,0.0615,0.0615,0.0448,0.0445,0.0441,0,0,0,0,0,0,0,0,0,0,0,0,0,0.0731,0.0732,0.075,0.0749,0.0749,0.0692,0.0691,0.069,0.0617,0.0616,0.0615,0.0614,0.0449,0.0445,0.0441,0,0,0,0,0,0,0,0,0,0,0,0,0,0.071,0.0732,0.075,0.0709,0.0705,0.0693,0.0691,0.069,0.0617,0.0616,0.0615,0.0614,0.0451,0.0446,0.044,0.0431,0,0,0.0423,0.0421,0,0,0,0,0,0,0,0,0.0711,0.071,0.0715,0.0712,0.0707,0.0664,0.0624,0.0599,0.0618,0.0646,0.0615,0.0613,0.0514,0.0503,0.0491,0.0423,0.0416,0.0423,0.0419,0.0417,0.0416,0,0,0,0,0,0,0,0.0713,0.0712,0.0723,0.0715,0.071,0.0671,0.0667,0.0619,0.0583,0.0644,0.0639,0.064,0.051,0.0497,0.0486,0.0413,0.0423,0.0418,0.0415,0.0413,0.0324,0.0324,0,0,0,0,0,0,0.0733,0.0714,0.0725,0.0722,0.071,0.0673,0.0668,0.0676,0.0585,0.0572,0.0641,0.0636,0.0507,0.0493,0.048,0.0472,0.0417,0.0412,0.0409,0.0323,0.0324,0.0325,0,0,0,0,0,0,0.0733,0.0735,0.0727,0.0718,0.0715,0.0675,0.0684,0.0675,0.0653,0.0585,0.0569,0.0627,0.0505,0.0488,0.0445,0.0464,0.041,0.0405,0.0322,0.0323,0.0324,0.0449,0,0,0,0,0,0,0.0732,0.0735,0.0743,0.0721,0.0717,0.0729,0.0686,0.0675,0.0657,0.0651,0.0568,0.0552,0.0503,0.0454,0.044,0.0455,0.04,0.032,0.0322,0.0324,0.0444,0.0454,0.0464,0,0,0,0,0,0.0732,0.0752,0.0744,0.0745,0.0731,0.073,0.0725,0.0688,0.0658,0.066,0.0605,0.0554,0.0455,0.0451,0.0434,0.0448,0.0319,0.0322,0.0324,0.0439,0.0452,0.0463,0,0,0,0,0,0,0.0739,0.0746,0.0737,0.0755,0.0748,0.072,0.0717,0.0691,0.065,0.0635,0.0563,0.0545,0.0518,0.0465,0.0462,0.0428,0.0379,0.0378,0.0473,0.0484,0.0494,0.0514,0.0396,0,0,0,0,0,0.075,0.077,0.0764,0.0777,0.0778,0.0747,0.0738,0.0716,0.0682,0.0662,0.0607,0.055,0.0516,0.0485,0.0444,0.042,0.0362,0.0418,0.0428,0.0437,0.0442,0.038,0.0385,0.0332,0.0332,0.0332,0,0,0.0753,0.0763,0.077,0.0781,0.0768,0.0786,0.0737,0.0732,0.0743,0.065,0.0634,0.0582,0.0519,0.0502,0.0484,0.0456,0.0423,0.044,0.0448,0.0447,0.0383,0.0388,0.0392,0.0333,0.0333,0.0333,0,0,0.0777,0.0782,0.0807,0.0814,0.0814,0.0806,0.0808,0.0783,0.0767,0.0752,0.0696,0.0663,0.0592,0.0566,0.0541,0.0578,0.0483,0.0552,0.0611,0.0553,0.0556,0.0559,0.0498,0.0495,0.0552,0.0552,0.0552,0,0.0777,0.0816,0.0811,0.0841,0.0855,0.0822,0.0851,0.0842,0.0804,0.0803,0.0761,0.0687,0.0633,0.0625,0.0637,0.0604,0.0541,0.0575,0.0566,0.0568,0.0568,0.0505,0.0499,0.0558,0.0558,0.0557,0.0556,0,0.0825,0.0854,0.087,0.0907,0.0922,0.0939,0.0941,0.0943,0.0916,0.0901,0.0881,0.081,0.0761,0.0745,0.0698,0.0683,0.0629,0.0592,0.054,0.0581,0.0512,0.0504,0.0567,0.0565,0.0563,0.0562,0,0,0.0825,0.0891,0.0895,0.0929,0.096,0.0977,0.1014,0.1039,0.1059,0.1014,0.1027,0.097,0.0912,0.088,0.0813,0.0763,0.0718,0.0677,0.0671,0.0624,0.057,0.0603,0.0596,0.0665,0.0664,0.0664,0.0522,0,0.086,0.0933,0.0959,0.1026,0.1064,0.1074,0.1117,0.1135,0.1127,0.1131,0.1072,0.1043,0.097,0.093,0.0878,0.0728,0.07,0.0759,0.053,0.0523,0.0554,0.059,0.0512,0.0386,0.0514,0.0512,0.0511,0,0.0894,0.0947,0.1017,0.1101,0.1118,0.1148,0.1211,0.1242,0.1256,0.1243,0.121,0.115,0.106,0.1004,0.0797,0.0822,0.0723,0.0628,0.062,0.0601,0.0542,0.0362,0.0365,0.0496,0.0497,0.0499,0.05,0,0.0899,0.0985,0.1045,0.1072,0.1159,0.1187,0.1223,0.1262,0.1292,0.129,0.1289,0.1192,0.1121,0.0962,0.0779,0.0755,0.0572,0.0511,0.0473,0.0473,0.034,0.0331,0.0437,0.0437,0.0437,0.0438,0.0438,0,0.0933,0.098,0.1045,0.1081,0.1155,0.12,0.126,0.1294,0.1326,0.1363,0.1319,0.1323,0.1104,0.0987,0.0805,0.0611,0.0585,0.0494,0.0446,0.0384,0.0381,0.0421,0.0421,0.0432,0.0433,0.0435,0.0435,0,0.0931,0.0975,0.105,0.1136,0.1156,0.1202,0.1274,0.1324,0.1344,0.1383,0.1376,0.1366,0.1225,0.1046,0.0805,0.0654,0.0461,0.0438,0.0391,0.0344,0.0383,0.0391,0.0309,0.0309,0.0309,0.0309,0.0309,0,0.0944,0.0978,0.1069,0.1112,0.1144,0.1207,0.126,0.1314,0.1362,0.1417,0.1442,0.1386,0.137,0.1064,0.0774,0.0488,0.054,0.0298,0.0269,0.0412,0.0373,0.0381,0.0389,0.0118,0.0117,0.0116,0.0115,0,0.0968,0.0983,0.1043,0.1128,0.1184,0.126,0.1324,0.1372,0.144,0.1501,0.1571,0.1568,0.1317,0.1026,0.0711,0.0519,0.0313,0.0269,0.0394,0.0205,0.0233,0.0196,0.0208,0.0104,0.0105,0.0106,0.0106,0.0107,0.0964,0.1001,0.1065,0.1158,0.122,0.1306,0.1374,0.1469,0.1578,0.1674,0.1651,0.1608,0.1301,0.0848,0.0553,0.0246,0.0289,0.0148,0.015,0.0154,0.02,0.0231,0.0108,0.0109,0.011,0.011,0.0111,0,0.0967,0.101,0.1097,0.1203,0.1289,0.1303,0.1423,0.1541,0.1696,0.1707,0.1756,0.1396,0.1097,0.0785,0.0268,0.0008,-0.0051,-0.003,-0.0079,-0.0067,-0.0056,-0.0022,-0.0173,-0.0174,-0.0175,-0.0176,0,0,0.0965,0.1035,0.1102,0.125,0.1306,0.1417,0.1486,0.1684,0.1742,0.1775,0.166,0.1556,0.1117,0.0706,0.0353,0.008,0.0075,0.0034,0.0279,0.0272,0.0286,0.0053,0.0122,0,0,0,0,0]}],[{"header":{"parameterUnit":"m.s-1","parameterCategory":2,"la1":30.2991,"la2":30.254,"lo1":-89.0895,"lo2":-89.0444,"dy":0.0017,"dx":0.0017,"nx":28,"ny":28,"refTime":"2025-08-14T09:00:00:Z","depth":"4","parameterNumber":2,"parameterNumberName":"U-component_of_CURRENTS"},"data":[0,0,0,0,0,0,0,0,0,0,0,0,0,0,0,0,0,0,0,0,0,0,0,0,0,0,0,0,0,0,0,0,0,0,0,0,0,0,0,0,0,0,0,0,0,0,0,0,0,0,0,0,0,0,0,0,0,0,0.0801,0.0801,0,0.0824,0.0825,0.0825,0.0772,0.0771,0.0769,0.0768,0.0778,0.078,0.0781,0,0,0,0,0,0,0,0,0,0,0,0,0,0.074,0.0741,0.0801,0.0801,0.0801,0.0824,0.0825,0.0825,0.0773,0.0771,0.0769,0.0767,0.0777,0.078,0.0782,0,0,0,0,0,0,0,0,0,0,0,0,0,0.0764,0.0741,0.08,0.0779,0.0777,0.0824,0.0825,0.0825,0.0773,0.0771,0.0768,0.0766,0.0777,0.0779,0.0782,0.0846,0,0,0.079,0.0791,0,0,0,0,0,0,0,0,0.0763,0.0766,0.0782,0.0781,0.0779,0.0794,0.0807,0.0832,0.0774,0.0773,0.0768,0.0765,0.0785,0.0787,0.0795,0.0846,0.0847,0.079,0.0792,0.0793,0.0794,0,0,0,0,0,0,0,0.0761,0.0765,0.0809,0.0782,0.0781,0.0779,0.0779,0.0812,0.0791,0.0773,0.077,0.0775,0.0783,0.0792,0.0795,0.0847,0.079,0.0792,0.0794,0.0795,0.0872,0.0872,0,0,0,0,0,0,0.0762,0.0764,0.0808,0.081,0.0766,0.0781,0.0782,0.0791,0.0791,0.0789,0.0777,0.0773,0.0789,0.0792,0.0795,0.0876,0.0793,0.0795,0.0797,0.0871,0.0872,0.0872,0,0,0,0,0,0,0.0761,0.0766,0.0807,0.0788,0.0793,0.0785,0.0795,0.0792,0.0825,0.0794,0.0791,0.0815,0.0787,0.0791,0.0816,0.0875,0.0796,0.0799,0.0871,0.0871,0.0872,0.1035,0,0,0,0,0,0,0.0759,0.0765,0.0776,0.0788,0.0794,0.0843,0.0798,0.0795,0.0831,0.0826,0.0827,0.0823,0.0786,0.0812,0.0819,0.0878,0.0801,0.087,0.0871,0.0872,0.1029,0.1041,0.1052,0,0,0,0,0,0.0757,0.076,0.0776,0.0782,0.0807,0.0844,0.0848,0.0833,0.0836,0.0855,0.0841,0.0824,0.0821,0.0816,0.0823,0.0884,0.087,0.0871,0.0872,0.1024,0.1039,0.1051,0,0,0,0,0,0,0.0743,0.0757,0.0773,0.0784,0.0825,0.0836,0.0843,0.0868,0.0879,0.0873,0.0851,0.0847,0.09,0.0857,0.0852,0.0897,0.0837,0.0839,0.095,0.0964,0.0975,0.0976,0.0803,0,0,0,0,0,0.0751,0.0765,0.0791,0.0818,0.0825,0.0857,0.0875,0.0885,0.0896,0.09,0.0908,0.0896,0.091,0.0907,0.0913,0.095,0.0901,0.098,0.0991,0.1002,0.1001,0.0989,0.1001,0.0876,0.0876,0.0875,0,0,0.0761,0.0773,0.0784,0.0819,0.0838,0.0872,0.086,0.09,0.0948,0.0903,0.0961,0.0966,0.0934,0.0968,0.0984,0.0937,0.1007,0.1003,0.1013,0.1006,0.0992,0.1004,0.1015,0.0876,0.0876,0.0876,0,0,0.079,0.0794,0.0815,0.0826,0.0866,0.0902,0.093,0.0972,0.0996,0.1063,0.1039,0.1053,0.1093,0.1057,0.1049,0.1122,0.109,0.1146,0.1192,0.1182,0.1193,0.1202,0.1147,0.115,0.1125,0.1125,0.1126,0,0.079,0.0829,0.0834,0.0841,0.086,0.0925,0.0963,0.1007,0.1066,0.1075,0.1089,0.1145,0.1121,0.1149,0.1163,0.1153,0.1139,0.1157,0.1201,0.1209,0.1216,0.1157,0.1158,0.1133,0.1132,0.1132,0.1131,0,0.0821,0.085,0.0857,0.0901,0.0932,0.0972,0.1025,0.1086,0.1152,0.1172,0.1248,0.125,0.126,0.1274,0.1248,0.1294,0.1267,0.1247,0.118,0.1239,0.1172,0.117,0.1145,0.1142,0.114,0.1138,0,0,0.0833,0.087,0.0881,0.0901,0.0957,0.0992,0.1074,0.1145,0.1195,0.1268,0.1316,0.1362,0.1376,0.1366,0.137,0.1359,0.1388,0.1339,0.1335,0.1306,0.1363,0.1296,0.1286,0.1413,0.1414,0.1415,0.1295,0,0.0868,0.0893,0.0925,0.0998,0.1008,0.1063,0.1143,0.12,0.1265,0.132,0.1337,0.141,0.1412,0.1468,0.1457,0.1422,0.1395,0.142,0.1289,0.1283,0.1236,0.1286,0.1418,0.1293,0.1293,0.1292,0.1292,0,0.0891,0.0907,0.0952,0.1029,0.1044,0.1107,0.1214,0.1302,0.1357,0.1393,0.1446,0.1488,0.1517,0.1522,0.1486,0.1525,0.1455,0.1411,0.1405,0.1283,0.1214,0.1218,0.1288,0.1288,0.1289,0.1289,0.1289,0,0.086,0.094,0.0988,0.0989,0.1077,0.1127,0.1223,0.1301,0.1343,0.1463,0.1472,0.1552,0.156,0.1565,0.1481,0.1518,0.1394,0.1409,0.1267,0.1258,0.1283,0.1274,0.1357,0.1357,0.1357,0.1358,0.1358,0,0.0842,0.0884,0.0979,0.0956,0.1066,0.1134,0.124,0.1328,0.1393,0.1405,0.1525,0.1532,0.158,0.1518,0.1486,0.1355,0.1387,0.128,0.1237,0.1349,0.1349,0.128,0.1273,0.1353,0.1354,0.1355,0.1356,0,0.079,0.0836,0.0887,0.0982,0.1027,0.1111,0.1224,0.1254,0.137,0.1389,0.1438,0.1469,0.1446,0.1424,0.1356,0.13,0.1231,0.1153,0.1235,0.1196,0.1104,0.1106,0.1043,0.104,0.1037,0.1035,0.1033,0,0.075,0.0753,0.0879,0.0902,0.0948,0.1067,0.1103,0.123,0.1239,0.133,0.1289,0.1305,0.1322,0.1143,0.1167,0.1104,0.1075,0.1034,0.1137,0.1115,0.1078,0.1085,0.109,0.1029,0.1028,0.1028,0.1027,0,0.067,0.0737,0.0798,0.0829,0.0868,0.0935,0.1001,0.0988,0.1115,0.1185,0.1156,0.1174,0.1079,0.1075,0.0995,0.0958,0.1103,0.1008,0.1015,0.1111,0.1097,0.1065,0.1073,0.1018,0.1019,0.102,0.1021,0,0.0664,0.0695,0.075,0.0794,0.0815,0.0796,0.0857,0.086,0.0902,0.1003,0.0972,0.1001,0.1035,0.0986,0.0929,0.0895,0.0917,0.0925,0.0937,0.0947,0.0981,0.0953,0.0794,0,0,0,0,0,0.066,0.0659,0.0673,0.0705,0.0696,0.0711,0.0767,0.0815,0.0907,0.0849,0.0927,0.0882,0.0864,0.087,0.0816,0.0885,0.0905,0.0823,0.0917,0.0968,0.0978,0.1033,0,0,0,0,0,0,0.0643,0.0683,0.0675,0.0607,0.0578,0.0561,0.0597,0.0652,0.0655,0.0756,0.0732,0.0836,0.0799,0.0857,0.0791,0.0797,0.0845,0.085,0.0849,0.0962,0.0971,0.098,0.104,0,0,0,0,0]},{"header":{"parameterUnit":"m.s-1","parameterCategory":2,"la1":30.2991,"la2":30.254,"lo1":-89.0895,"lo2":-89.0444,"dy":0.0017,"dx":0.0017,"nx":28,"ny":28,"refTime":"2025-08-14T09:00:00:Z","depth":"4","parameterNumber":3,"parameterNumberName":"V-component_of_CURRENTS"},"data":[0,0,0,0,0,0,0,0,0,0,0,0,0,0,0,0,0,0,0,0,0,0,0,0,0,0,0,0,0,0,0,0,0,0,0,0,0,0,0,0,0,0,0,0,0,0,0,0,0,0,0,0,0,0,0,0,0,0,0.0222,0.0222,0,0.0172,0.0171,0.017,0.0135,0.0135,0.0135,0.0135,0.0084,0.0082,0.0081,0,0,0,0,0,0,0,0,0,0,0,0,0,0.0256,0.0256,0.0222,0.0222,0.0222,0.0172,0.0171,0.017,0.0135,0.0135,0.0135,0.0135,0.0084,0.0083,0.0081,0,0,0,0,0,0,0,0,0,0,0,0,0,0.0225,0.0255,0.0222,0.02,0.0198,0.0172,0.0171,0.017,0.0135,0.0135,0.0135,0.0135,0.0085,0.0083,0.0081,0.0069,0,0,0.0075,0.0074,0,0,0,0,0,0,0,0,0.0226,0.0223,0.0204,0.0202,0.0199,0.0162,0.0164,0.0137,0.0135,0.0156,0.0135,0.0135,0.0112,0.0107,0.0094,0.0066,0.0064,0.0074,0.0073,0.0072,0.0072,0,0,0,0,0,0,0,0.0229,0.0225,0.02,0.0204,0.0201,0.0182,0.0177,0.0159,0.0132,0.0154,0.0152,0.0151,0.011,0.0096,0.0093,0.0063,0.0074,0.0073,0.0071,0.0071,-0.0038,-0.004,0,0,0,0,0,0,0.0242,0.0227,0.0201,0.0198,0.0216,0.0182,0.0176,0.0172,0.0132,0.0127,0.0151,0.015,0.0099,0.0095,0.0091,0.0046,0.0072,0.007,0.0069,-0.0037,-0.0039,-0.0041,0,0,0,0,0,0,0.0243,0.024,0.0203,0.0214,0.0208,0.0182,0.0176,0.0171,0.0164,0.0131,0.0125,0.0151,0.0099,0.0094,0.0059,0.0045,0.0069,0.0068,-0.0035,-0.0037,-0.004,-0.0025,0,0,0,0,0,0,0.0244,0.0241,0.0243,0.0215,0.0208,0.0191,0.0176,0.017,0.0164,0.0162,0.0129,0.0123,0.0099,0.0062,0.0057,0.0043,0.0066,-0.0033,-0.0036,-0.0039,-0.0023,-0.0026,-0.0029,0,0,0,0,0,0.0245,0.0241,0.0244,0.0241,0.0212,0.0191,0.0186,0.0165,0.0165,0.0159,0.0125,0.0125,0.0038,0.0059,0.0053,0.0039,-0.0031,-0.0035,-0.0039,-0.0022,-0.0026,-0.0029,0,0,0,0,0,0,0.0254,0.0236,0.0239,0.0229,0.0218,0.0187,0.0178,0.0173,0.0143,0.014,0.0111,0.0102,0.0062,0.0045,0.007,-0.0007,0.0001,-0.0004,0.0015,0.0011,0.0008,0.0026,0.0064,0,0,0,0,0,0.0261,0.0258,0.0239,0.0237,0.0228,0.0209,0.02,0.019,0.0162,0.0149,0.0124,0.0086,0.004,0.0025,-0.0014,-0.0043,-0.006,-0.0062,-0.0065,-0.0067,-0.006,-0.0119,-0.0125,-0.0053,-0.0053,-0.0053,0,0,0.0267,0.0258,0.0257,0.024,0.0226,0.0215,0.0202,0.019,0.0183,0.0149,0.0123,0.008,0.0028,-0.0019,-0.0037,-0.0031,-0.0096,-0.0072,-0.0073,-0.0065,-0.0123,-0.013,-0.0136,-0.0056,-0.0055,-0.0055,0,0,0.0276,0.0266,0.0266,0.0246,0.0232,0.0225,0.0228,0.02,0.0185,0.016,0.0117,0.0062,0.0021,-0.0037,-0.0068,-0.011,-0.0112,-0.0118,-0.0113,-0.017,-0.0176,-0.0181,-0.0197,-0.0204,-0.0117,-0.0117,-0.0117,0,0.0284,0.028,0.0263,0.0246,0.0238,0.0233,0.0229,0.0209,0.0177,0.0154,0.0156,0.0048,0.0006,-0.0072,-0.0095,-0.0115,-0.0128,-0.0089,-0.0171,-0.0177,-0.0183,-0.0198,-0.0205,-0.0117,-0.0117,-0.0117,-0.0117,0,0.0283,0.0277,0.027,0.0258,0.0248,0.024,0.0218,0.0214,0.0208,0.0171,0.0105,0.0039,-0.0018,-0.0056,-0.0085,-0.0156,-0.0146,-0.0167,-0.0152,-0.0188,-0.0203,-0.0211,-0.0117,-0.0117,-0.0117,-0.0117,0,0,0.0311,0.0279,0.028,0.028,0.0251,0.0252,0.0239,0.0217,0.0211,0.0155,0.012,0.0018,-0.0013,-0.0051,-0.0101,-0.0163,-0.0218,-0.0173,-0.0176,-0.017,-0.0309,-0.0254,-0.0257,-0.0248,-0.0249,-0.0251,-0.0297,0,0.0323,0.0311,0.0292,0.0297,0.0288,0.0272,0.0269,0.0241,0.0215,0.0175,0.0079,0.0039,-0.0011,-0.0019,-0.0102,-0.0202,-0.0241,-0.0202,-0.0291,-0.0293,-0.0225,-0.0266,-0.0256,-0.0303,-0.0305,-0.0306,-0.0307,0,0.0331,0.0325,0.0328,0.0325,0.0322,0.0328,0.0334,0.0335,0.0261,0.0233,0.0156,0.0098,-0.0011,-0.0024,-0.0198,-0.0166,-0.0221,-0.0292,-0.0296,-0.0253,-0.0253,-0.0267,-0.0322,-0.0321,-0.032,-0.0319,-0.0318,0,0.0363,0.0356,0.0374,0.0361,0.0351,0.0363,0.0384,0.0343,0.0344,0.029,0.0275,0.0133,0.0081,-0.0037,-0.0172,-0.0177,-0.0351,-0.0375,-0.0371,-0.0366,-0.0405,-0.0399,-0.0459,-0.0459,-0.0459,-0.0459,-0.0459,0,0.0372,0.0385,0.0397,0.0385,0.0439,0.0417,0.0464,0.0454,0.0418,0.0411,0.0327,0.0286,0.0077,-0.0045,-0.0161,-0.0292,-0.0333,-0.0369,-0.0383,-0.0397,-0.039,-0.041,-0.0403,-0.0461,-0.046,-0.046,-0.046,0,0.0397,0.0394,0.042,0.0429,0.0446,0.0498,0.054,0.0551,0.0539,0.0531,0.0531,0.037,0.0223,0.0039,-0.0173,-0.0257,-0.0388,-0.0402,-0.0375,-0.0388,-0.0363,-0.0356,-0.0416,-0.0414,-0.0413,-0.0412,-0.0411,0,0.0399,0.0406,0.0467,0.05,0.051,0.0583,0.0617,0.062,0.063,0.059,0.057,0.0436,0.0331,0.0069,-0.0134,-0.0332,-0.035,-0.0388,-0.0408,-0.0355,-0.0364,-0.0358,-0.0352,-0.0409,-0.0409,-0.0409,-0.0408,0,0.04,0.0439,0.0475,0.0542,0.0591,0.0677,0.0722,0.0734,0.0744,0.0712,0.0637,0.0511,0.0328,0.009,-0.0053,-0.02,-0.0366,-0.0377,-0.0381,-0.04,-0.0348,-0.0357,-0.0352,-0.0404,-0.0405,-0.0405,-0.0406,0,0.043,0.0476,0.0525,0.0597,0.0668,0.0746,0.0775,0.0784,0.08,0.0744,0.0707,0.053,0.0388,0.016,0.0017,-0.0119,-0.0159,-0.0182,-0.0197,-0.0203,-0.0136,-0.0039,-0.0012,0,0,0,0,0,0.0459,0.0503,0.0557,0.0649,0.0716,0.077,0.0823,0.0838,0.0835,0.0803,0.0767,0.0623,0.039,0.0249,0.0126,0.0022,-0.0192,-0.0124,-0.0227,-0.0382,-0.0387,-0.034,0,0,0,0,0,0,0.0474,0.0539,0.0569,0.0675,0.0741,0.083,0.0881,0.0877,0.0861,0.0824,0.0683,0.0624,0.0367,0.0466,0.0131,0.0083,0.0011,-0.0249,-0.025,-0.0379,-0.0384,-0.0387,-0.0341,0,0,0,0,0]}]]